Regional Weather Roundup
Issued by NWS Newport/Morehead, NC

Current Version | Previous Version | Text Only | Print | Product List | Glossary On
Versions: 1 2 3 4 5 6 7 8 9 10 11 12 13 14 15 16 17 18 19 20 21 22 23 24 25 26 27 28 29 30 31 32 33 34 35 36 37 38 39 40 41 42 43 44 45 46 47 48 49 50
995
ASUS42 KMHX 212224
RWRMHX
WEATHER ROUNDUP FOR EASTERN NORTH CAROLINA
NATIONAL WEATHER SERVICE NEWPORT/MOREHEAD CITY NC
600 PM EDT THU MAY 21 2015

NOTE: "FAIR" INDICATES FEW OR NO CLOUDS BELOW 12,000 FEET
WITH NO SIGNIFICANT WEATHER AND/OR OBSTRUCTIONS TO VISIBILITY

NCZ015>017-031-032-045>047-102-103-212300-
NORTH COAST

CITY           SKY/WX    TMP DP  RH WIND       PRES   REMARKS
EDENTON        CLOUDY    65  63  93 NW9       29.79R
ELIZABETH CITY CLOUDY    68  67  96 W14       29.76R
KITTY HAWK     RAIN      73  70  89 S6        29.75S
MANTEO         RAIN      74  72  95 S8        29.77R

$$

NCZ045>047-081-094-103-104-212300-
CENTRAL COAST

CITY           SKY/WX    TMP DP  RH WIND       PRES   REMARKS
FRISCO         MOSUNNY   75  71  87 S9        29.77R
SWANQUARTER      N/A     72 N/A N/A W9G15     29.74R

$$

NCZ095-097-098-100-101-212300-
SOUTHERN COAST

CITY           SKY/WX    TMP DP  RH WIND       PRES   REMARKS
BEAUFORT       PTSUNNY   77  74  90 S13       29.76S
CEDAR ISLAND     N/A     77 N/A N/A S7G15     29.79S
JACKSONVILLE   TSTM      71  69  93 W6        29.78R
PINEY ISLAND   CLOUDY   N/A N/A N/A S10G21    29.75R
WILMINGTON     CLOUDY    75  71  87 SW7       29.78S


$$

NCZ011>013-027>030-043-044-078>080-089-090>093-098-212300-
COASTAL PLAIN

CITY           SKY/WX    TMP DP  RH WIND       PRES   REMARKS
AHOSKIE        CLOUDY    60  58  91 N7        29.84R
CLINTON        PTSUNNY   70  67  91 NW10      29.83R
ELIZABETHTOWN  MOSUNNY   75  67  77 NW7G17    29.82R
GOLDSBORO      CLOUDY    68  63  84 NW9       29.82R
GREENVILLE     CLOUDY    63  61  94 N8        29.85R
HAVELOCK       TSTM      77  72  84 SW13G20   29.77R
KENANSVILLE    CLOUDY    70  67  90 N12G20    29.83R
KINSTON        LGT RAIN  66  64  94 N14G20    29.83R
NEW BERN       HVY RAIN  72  68  87 W12       29.79R FOG
RICHLANDS      CLOUDY    73  66  78 W3        29.80S
ROCKY MOUNT    CLOUDY    64  59  83 N14       29.86R
WASHINGTON     CLOUDY   N/A N/A N/A NW10      29.81R
WHITEVILLE     MOSUNNY   79  70  74 NW7       29.79S

$$

AMZ130-135-150-152-154-156-158-170-250-252-270-ANZ085-086-088-633-658-670-212300-
MARINE OBSERVATIONS

STATION/POSITION TIME  TEMP    WIND        PRES    WAVE   SWELL
                       AIR SEA DIR/SP/G            HT/PER HT/PER
                 (UTC) (F)     (DEG/KT/KT) (MB)    (FT/S) (FT/S)
CHESAPEAKE LIGHT 2200   65      60/  2/  3 1008.1
64 E VA BEACH    2150   66 62  140/ 14/ 16 1007.6    3/ 9   2/ 9
DUCK             2200   70 68  160/ 16/ 17 1006.5
2 E DUCK         2211      68                N/A     4/ 4
OREGON INLET     2200   75 70  160/ 10/ 13 1007.7
13E OREGON INLT  2200      66                N/A     4/ 5
HATTERAS CG      2200   76 73  170/ 10/ 12 1007.5
DIAMOND BUOY     2150   77 77  180/ 16/ 17 1008.2    4/ 5   2/ 8
CAPE LOOKOUT     2200   77     190/ 13/ 15 1007.5
BEAUFORT LAB     2200   77 76  200/ 13/ 15 1006.8
27 SE WRIGHTSVLE 2200   75 78  230/ 17/ 23   N/A
5 SE WRIGHTSVLE  2108   77 77  220/ 16/ 21 1007.5
225 S CAPE HAT   2150   76 75  210/ 14/ 16 1011.7    4/ 5   2/ 8
41 SE CHARLESTON 2150   78 76  220/ 17/ 21 1008.7    4/ 5   2/ 8

$$



USA.gov is the U.S. government's official web portal to all federal, state and local government web resources and services.